Regional Weather Roundup
Issued by NWS

Home | Current Version | Previous Version | Graphics & Text | Print | Product List | Glossary Off
Versions: 1 2 3 4 5 6 7 8 9 10 11 12 13 14 15 16 17 18 19 20 21 22 23 24 25 26 27 28 29 30 31 32 33 34 35 36 37 38 39 40 41 42 43 44 45 46 47 48 49 50

000
ASUS43 KTOP 260659
RWRKS

WEATHER ROUNDUP FOR KANSAS
NATIONAL WEATHER SERVICE GOODLAND KS
200 AM CDT FRI AUG 26 2016

NOTE:  "FAIR" INDICATES FEW OR NO CLOUDS BELOW 12,000 FEET WITH NO
SIGNIFICANT WEATHER AND/OR OBSTRUCTIONS TO VISIBILITY.

KSZ001>006-013>018-027>032-041>047-260800-
NORTHWEST KANSAS

CITY           SKY/WX    TMP DP  RH WIND       PRES   REMARKS
GOODLAND       FAIR      56  51  84 S5        30.20S
HAYS           MOCLDY    63  54  72 NE7       30.15F
HILL CITY      MOCLDY    59  57  93 N6        30.18S
RUSSELL        MOCLDY    62  59  90 N7        30.14R
$$

KSZ061>065-074>080-084>089-260800-
SOUTHWEST KANSAS

CITY           SKY/WX    TMP DP  RH WIND       PRES   REMARKS
DODGE CITY     CLOUDY    65  63  93 N3        30.15S
ELKHART          N/A     62  57  83 S2          N/A
GARDEN CITY    FAIR      61  58  90 E8        30.16F
GREAT BEND     FAIR      64  55  72 N9        30.12F
LIBERAL        CLOUDY    66  61  82 SE7       30.18R
$$

KSZ066>073-081>083-090>101-260800-
SOUTHEAST KANSAS

CITY           SKY/WX    TMP DP  RH WIND       PRES   REMARKS
CHANUTE        MOCLDY    74  68  81 W10       30.11R
COFFEYVILLE    MOCLDY    73  68  84 NW8       30.10R
HUTCHINSON     LGT RAIN  69  65  86 NE8       30.10F
NEWTON         MOCLDY    67  66  97 NE5       30.10F
PARSONS        MOCLDY    71  69  93 W5        30.10R
WICHITA INTL   CLOUDY    72  68  87 E10       30.07F THUNDER
WICHITA JABRA  MOCLDY    70  69  97 E7        30.08F
WINFIELD       FAIR      70  69  97 S8        30.11R
$$

KSZ007>012-019>026-033>040-048>060-102>105-260800-
NORTHEAST KANSAS

CITY           SKY/WX    TMP DP  RH WIND       PRES   REMARKS
CONCORDIA      FAIR      62  59  90 NE6       30.14
EMPORIA        TSTM      69  68  96 CALM      30.09R FOG
LAWRENCE       CLOUDY    71  67  87 E8        30.08F
MANHATTAN      FAIR      66  62  87 N5        30.09F
OLATHE IND     TSTM      71  70  96 E5        30.09F
OLATHE EXE     LGT RAIN  70  70 100 NE7       30.09S FOG
SALINA         CLOUDY    69  61  75 NE7       30.12S
TOPEKA BILLARD CLOUDY    70  64  81 NE3       30.10S
TOPEKA FORBES  MOCLDY    70  65  84 NE6       30.09S
$$




USA.gov is the U.S. government's official web portal to all federal, state and local government web resources and services.